Weather History for Racine, WI

Change the Weather History Date:

Friday, April 11, 2014

  Actual Average Record
Temperature  
Mean Temperature 50 °F -  
Max Temperature 66 °F 50 °F 80 °F (1977)
Min Temperature 36 °F 35 °F 20 °F (1973)
Degree Days  
Heating Degree Days 15    
Moisture  
Dew Point 24 °F    
Average Humidity 40    
Maximum Humidity 70    
Minimum Humidity 19    
Precipitation  
Precipitation 0.00 in - - ()
Sea Level Pressure  
Sea Level Pressure 30.00 in    
Wind  
Wind Speed 7 mph (SW)    
Max Wind Speed 18 mph    
Max Gust Speed 21 mph    
Visibility 10 miles    
Events      
Averages and records for this station are not official NWS values.
T = Trace of Precipitation, MM = Missing Value Source: NWS Daily Summary

Daily Weather History Graph

Daily Weather History Graph

Search for Another Location

Airport:

Trip Planner

Search our weather history database for the weather conditions in past years. The results will help you decide how hot, cold, wet, or windy it might be!

Date:

Astronomy

Apr. 11, 2014 Rise Set
Actual Time 6:16 AM CDT 7:28 PM CDT
Civil Twilight 5:47 AM CDT 7:58 PM CDT
Nautical Twilight 5:12 AM CDT 8:33 PM CDT
Astronomical Twilight 4:35 AM CDT 9:09 PM CDT
Moon 4:04 PM CDT (4/11) 4:16 AM CDT (4/11)
Length of Visible Light 14h 10m
Length of Day
13h 12m
Waxing Gibbous, 87% of the Moon is Illuminated
Apr 11
Waxing Gibbous
Apr 15
Full
Apr 22
Last Quarter
Apr 29
New
May 6
First Quarter

Hourly Weather History & Observations

Time (CDT) Temp. Windchill Dew Point Humidity Pressure Visibility Wind Dir Wind Speed Gust Speed Precip Events Conditions
12:53 AM 46.0 °F 43.9 °F 21.0 °F 37% 29.97 in 10.0 mi NNW 4.6 mph - N/A   Clear
1:53 AM 46.9 °F - 19.9 °F 34% 29.97 in 10.0 mi NNW 4.6 mph - N/A   Clear
2:53 AM 44.1 °F 41.5 °F 21.9 °F 42% 29.98 in 10.0 mi NW 4.6 mph - N/A   Clear
3:53 AM 37.0 °F 34.5 °F 26.1 °F 65% 29.99 in 10.0 mi West 3.5 mph - N/A   Clear
4:53 AM 36.0 °F 33.3 °F 26.1 °F 67% 30.01 in 10.0 mi West 3.5 mph - N/A   Clear
5:53 AM 36.0 °F 33.3 °F 23.0 °F 59% 30.01 in 10.0 mi WSW 3.5 mph - N/A   Clear
6:53 AM 36.0 °F 31.1 °F 26.1 °F 67% 30.03 in 10.0 mi West 5.8 mph - N/A   Clear
7:53 AM 46.9 °F - 24.1 °F 41% 30.05 in 10.0 mi WSW 5.8 mph - N/A   Clear
8:53 AM 54.0 °F - 21.9 °F 29% 30.04 in 10.0 mi SSW 6.9 mph - N/A   Clear
9:53 AM 59.0 °F - 19.9 °F 22% 30.04 in 10.0 mi South 10.4 mph - N/A   Clear
10:53 AM 62.1 °F - 19.9 °F 20% 30.03 in 10.0 mi SSE 12.7 mph - N/A   Clear
11:53 AM 62.1 °F - 19.0 °F 19% 30.02 in 10.0 mi SSE 15.0 mph - N/A   Clear
12:53 PM 61.0 °F - 19.0 °F 20% 30.01 in 10.0 mi SSE 18.4 mph - N/A   Clear
1:53 PM 62.1 °F - 21.0 °F 21% 29.99 in 10.0 mi SSE 16.1 mph - N/A   Clear
2:53 PM 64.9 °F - 21.0 °F 19% 29.99 in 10.0 mi West 12.7 mph 19.6 mph N/A   Overcast
3:53 PM 63.0 °F - 26.1 °F 25% 30.00 in 10.0 mi NW 10.4 mph 20.7 mph N/A   Overcast
4:53 PM 64.9 °F - 26.1 °F 23% 29.97 in 10.0 mi SW 6.9 mph 17.3 mph N/A   Clear
5:53 PM 64.9 °F - 28.0 °F 25% 29.96 in 10.0 mi WSW 8.1 mph - N/A   Scattered Clouds
6:53 PM 55.0 °F - 28.9 °F 37% 29.97 in 10.0 mi ESE 5.8 mph - N/A   Overcast
7:53 PM 51.1 °F - 27.0 °F 39% 29.97 in 10.0 mi SSE 3.5 mph - N/A   Mostly Cloudy
8:53 PM 46.9 °F - 28.0 °F 48% 29.99 in 10.0 mi South 3.5 mph - N/A   Clear
9:53 PM 44.1 °F 42.5 °F 30.0 °F 58% 30.00 in 10.0 mi East 3.5 mph - N/A   Clear
10:53 PM 42.1 °F 37.1 °F 32.0 °F 67% 30.02 in 10.0 mi North 8.1 mph - N/A   Clear
11:53 PM 39.9 °F 35.1 °F 30.9 °F 70% 30.03 in 10.0 mi North 6.9 mph - N/A   Clear